This is the latest recevied weather packets stored in our database for station/object SQ9RHX-13. If no packets are shown the sender has not sent any weather packets the latest 10 day(s).
| Time | Temp. | Humidity | Pressure | Rain* | Wind** | Luminosity | Snow |
|---|---|---|---|---|---|---|---|
| 1777480505 | 10° C | 34% | 1033 hPa | 0 mm | - | 68 W/m² | - |
| 1777480203 | 8.89° C | 35% | 1033 hPa | 0 mm | - | 74 W/m² | - |
| 1777479904 | 8.89° C | 35% | 1033.1 hPa | 0 mm | - | 37 W/m² | - |
| 1777479603 | 9.44° C | 34% | 1033 hPa | 0 mm | - | 35 W/m² | - |
| 1777479306 | 9.44° C | 34% | 1033.3 hPa | 0 mm | - | 37 W/m² | - |
| 1777479005 | 10° C | 33% | 1032.9 hPa | 0 mm | - | 43 W/m² | - |
| 1777478704 | 10° C | 33% | 1032.9 hPa | 0 mm | - | 43 W/m² | - |
| 1777478403 | 10.56° C | 32% | 1033 hPa | 0 mm | - | 46 W/m² | - |
| 1777478102 | 11.67° C | 31% | 1032.7 hPa | 0 mm | - | 63 W/m² | - |
| 1777477805 | 11.67° C | 30% | 1032.9 hPa | 0 mm | - | 160 W/m² | - |
| 1777477503 | 11.11° C | 29% | 1032.9 hPa | 0 mm | - | 199 W/m² | - |
| 1777477204 | 10.56° C | 30% | 1032.7 hPa | 0 mm | - | 166 W/m² | - |
| 1777476904 | 10° C | 30% | 1032.8 hPa | 0 mm | - | 165 W/m² | - |
| 1777476610 | 10.56° C | 30% | 1032.8 hPa | 0 mm | - | 56 W/m² | - |
| 1777476302 | 11.67° C | 30% | 1033 hPa | 0 mm | - | 83 W/m² | - |
| 1777476004 | 11.67° C | 30% | 1033.1 hPa | 0 mm | - | 242 W/m² | - |
| 1777475703 | 11.67° C | 29% | 1032.9 hPa | 0 mm | - | 269 W/m² | - |
| 1777475403 | 11.67° C | 28% | 1032.8 hPa | 0 mm | - | 286 W/m² | - |
| 1777475104 | 10.56° C | 30% | 1032.9 hPa | 0 mm | - | 260 W/m² | - |
| 1777474803 | 10° C | 30% | 1033 hPa | 0 mm | - | 83 W/m² | - |
| 1777474504 | 10° C | 30% | 1033 hPa | 0 mm | - | 67 W/m² | - |
| 1777474204 | 10.56° C | 29% | 1032.9 hPa | 0 mm | - | 76 W/m² | - |
| 1777473904 | 11.11° C | 31% | 1032.9 hPa | 0 mm | - | 96 W/m² | - |
| 1777473604 | 11.67° C | 28% | 1033 hPa | 0 mm | - | 143 W/m² | - |
| 1777473303 | 11.67° C | 28% | 1032.7 hPa | 0 mm | - | 402 W/m² | - |
* Rain latest hour (hover to see other rain measurements)
** Current wind speed in m/s (hover to see current wind gust speed)